Volver al catálogo

STARLINK-31606

ActivoComunicacionesVLEO
NORAD 59571·PAYLOAD·🇺🇸 United States

Lanzado Apr 23, 2024 desde Cape Canaveral Space Force Station

Loading…

Próximos Pases (próximas 24 horas)

TLE

ActualizadoSource: CelesTrak SupGP

Época: Sep 15, 2026, 02:05 UTC

1 59571C 24076H   26258.08729167 -.00010432  00000+0 -37791-3 0  2588
2 59571  43.0015  18.9737 0001463 271.5802  77.0970 15.27576397    19

Sigue STARLINK-31606 en tiempo real con AllMySat

Download on the App Store